Simultaneous Nadir Overpasses (SNOs) Predictions

Prediction of SNOs between FY3D and AQUA Satellite Orbit:

Table of predicted SNOs for the next 14.0 days since TLE Epoch: 3/19/2022
Index Date (FY3D) Time (FY3D) Lat,Lon (FY3D) SZA (FY3D ) Date (AQUA) Time (AQUA) Lat,Lon (AQUA) SZA (AQUA ) Distance(km) Time Diff (sec)
1 03/19/2022 12:18:05 -73.96, 169.65 105.54 03/19/2022 12:18:12 -73.95, 169.68 105.55 1.12 7
2 03/19/2022 13:08:16 72.13, -19.05 72.51 03/19/2022 13:07:05 72.13, -19.02 72.51 1.09 71
3 03/22/2022 02:54:49 -75.00, -52.21 105.43 03/22/2022 02:55:59 -75.00, -52.22 105.44 0.28 70
4 03/22/2022 03:45:04 73.48, 119.03 72.90 03/22/2022 03:44:56 73.48, 118.99 72.90 1.28 8
5 03/24/2022 18:21:56 74.93,-103.78 73.45 03/24/2022 18:22:50 74.92,-103.74 73.43 1.30 54
6 03/24/2022 19:12:06 -73.25, 67.78 108.40 03/24/2022 19:11:43 -73.26, 67.76 108.39 0.58 23
7 03/27/2022 09:48:56 -74.61,-154.65 107.96 03/27/2022 09:49:35 -74.61,-154.65 107.97 0.12 39
8 03/27/2022 10:39:10 72.98, 16.61 70.28 03/27/2022 10:38:31 72.99, 16.60 70.28 0.56 39
9 03/30/2022 01:15:57 74.22, 154.63 70.58 03/30/2022 01:16:20 74.23, 154.58 70.58 1.74 23
10 03/30/2022 02:06:16 -72.96, -35.09 110.79 03/30/2022 02:05:21 -72.95, -35.03 110.80 2.18 55
11 04/01/2022 16:43:00 -74.04, 103.32 110.65 04/01/2022 16:43:07 -74.05, 103.29 110.65 1.06 7



Historial Predications of SNOs between FY3D and AQUA
